Weather History for CYOW - September, 2012

Change the Weather History Date:

Wednesday, September 12, 2012

  Actual Average Record
Temperature  
Mean Temperature 65 °F -  
Max Temperature 80 °F 62 °F 86 °F (2005)
Min Temperature 50 °F 44 °F 42 °F (2002)
Growing Degree Days 15 (Base 50)    
Moisture  
Dew Point 56 °F    
Average Humidity 73    
Maximum Humidity 100    
Minimum Humidity 47    
Precipitation  
Precipitation 0.00 in 0.10 in - ()
Sea Level Pressure  
Sea Level Pressure 30.21 in    
Wind  
Wind Speed 7 mph ()    
Max Wind Speed 18 mph    
Max Gust Speed 26 mph    
Visibility 15.0 miles    
Events Fog    
Averages and records for this station are not official NWS values.
T = Trace of Precipitation, MM = Missing Value Source: Averaged Metar Reports

Daily Weather History Graph

Daily Weather History Graph

Search for Another Location

Airport or City:

Trip Planner

Search our weather history database for the weather conditions in past years. The results will help you decide how hot, cold, wet, or windy it might be!

Date:

Astronomy

Sep. 12, 2012 Rise Set
Actual Time 6:38 AM EDT 7:18 PM EDT
Civil Twilight 6:08 AM EDT 7:48 PM EDT
Nautical Twilight 5:32 AM EDT 8:23 PM EDT
Astronomical Twilight 4:56 AM EDT 9:00 PM EDT
Moon 2:44 AM EDT (9/12) 5:11 PM EDT (9/12)
Length of Visible Light 13h 39m
Length of Day
12h 40m
Waning Crescent, 14% of the Moon is Illuminated
Sep 12
Waning Crescent
Sep 15
New
Sep 22
First Quarter
Sep 29
Full
Oct 8
Last Quarter

Hourly Weather History & Observations

Time (EDT) Temp. Dew Point Humidity Pressure Visibility Wind Dir Wind Speed Gust Speed Precip Events Conditions
1:00 AM 57.2 °F 53.6 °F 88% 30.19 in 15.0 mi South 4.6 mph - N/A   Clear
2:00 AM 55 °F 53 °F 90% 30.19 in - South 4.6 mph - -  
2:00 AM 55.4 °F 53.6 °F 94% 30.19 in 15.0 mi South 4.6 mph - N/A   Clear
3:00 AM 55.4 °F 53.6 °F 94% 30.20 in 15.0 mi South 3.5 mph - N/A   Clear
4:00 AM 53.6 °F 53.6 °F 100% 30.21 in 15.0 mi South 4.6 mph - N/A Fog Shallow Fog
5:00 AM 51.8 °F 51.8 °F 100% 30.21 in 15.0 mi SSE 3.5 mph - N/A Fog Shallow Fog
6:00 AM 51.8 °F 51.8 °F 100% 30.22 in 15.0 mi SSE 4.6 mph - N/A   Clear
7:00 AM 53.6 °F 51.8 °F 94% 30.23 in 15.0 mi South 4.6 mph - N/A   Clear
8:00 AM 57 °F 55 °F 92% 30.24 in - South 4.6 mph - -   Scattered Clouds
8:00 AM 57.2 °F 55.4 °F 94% 30.24 in 15.0 mi South 4.6 mph - N/A   Partly Cloudy
9:00 AM 62.6 °F 59.0 °F 88% 30.24 in 15.0 mi South 6.9 mph - N/A   Partly Cloudy
10:00 AM 68.0 °F 60.8 °F 78% 30.24 in 15.0 mi SSW 10.4 mph 17.3 mph N/A   Partly Cloudy
11:00 AM 73.4 °F 60.8 °F 65% 30.24 in 15.0 mi SW 13.8 mph - N/A   Partly Cloudy
12:00 PM 75.2 °F 62.6 °F 65% 30.22 in 15.0 mi South 12.7 mph - N/A   Partly Cloudy
1:00 PM 78.8 °F 62.6 °F 57% 30.22 in 15.0 mi SSW 13.8 mph 21.9 mph N/A   Partly Cloudy
2:00 PM 79 °F 62 °F 47% 30.20 in - SSW 13.8 mph - -   Scattered Clouds
2:00 PM 78.8 °F 62.6 °F 57% 30.20 in 15.0 mi South 11.5 mph 21.9 mph N/A   Partly Cloudy
3:00 PM 78.8 °F 60.8 °F 54% 30.19 in 15.0 mi South 10.4 mph 21.9 mph N/A   Scattered Clouds
4:00 PM 78.8 °F 59.0 °F 51% 30.18 in 15.0 mi SSW 18.4 mph 26.5 mph N/A   Scattered Clouds
5:00 PM 77.0 °F 59.0 °F 54% 30.17 in 15.0 mi SSW 13.8 mph 23.0 mph N/A   Scattered Clouds
6:00 PM 75.2 °F 57.2 °F 53% 30.18 in 15.0 mi SSW 12.7 mph 19.6 mph N/A   Partly Cloudy
7:00 PM 71.6 °F 53.6 °F 53% 30.19 in 15.0 mi SSW 9.2 mph 19.6 mph N/A   Scattered Clouds
8:00 PM 68 °F 54 °F 50% 30.21 in - South 8.1 mph - -   Clear
8:00 PM 68.0 °F 53.6 °F 60% 30.21 in 15.0 mi South 8.1 mph - N/A   Mostly Cloudy
9:00 PM 66.2 °F 53.6 °F 64% 30.22 in 15.0 mi South 8.1 mph - N/A   Partly Cloudy
10:00 PM 64.4 °F 53.6 °F 68% 30.22 in 15.0 mi SW 8.1 mph - N/A   Scattered Clouds
11:00 PM 62.6 °F 53.6 °F 72% 30.23 in 15.0 mi SSW 8.1 mph - N/A   Scattered Clouds